Location: Ahausen
(50.4985°N, 8.2722°E)
Time: 03:44:02
(UTC+00:00)

GP-B - Pass Details

Date: 18 September 2020
Orbit: 631 x 635 km, 89.8° (Epoch: 22 October)

Event Time Altitude Azimuth Distance (km) Brightness Sun altitude
Rises 18:17:08 0° 357° (N) 2,946 6.7 -7.8°
Reaches altitude 10° 18:19:24 10° 353° (N) 2,032 6.0 -8.1°
Maximum altitude 18:23:45 53° 277° (W) 783 4.1 -8.8°
Drops below altitude 10° 18:28:03 10° 201° (SSW) 2,013 5.8 -9.4°
Sets 18:30:17 0° 196° (SSW) 2,915 6.5 -9.8°
